Home   Weather   Tønsberg   Past weeks

Flag for Norway Past Weather in Tønsberg, Norway — Yesterday and Last 2 Weeks

Now
54 °F

Partly sunny.


Feels Like: 47 °F
Forecast: 40 / 43 °F
Wind: 31 mph from East

Location: Oseberg

Current Time: Oct 22, 2017 at 9:10:27 am

Latest Report: Oct 22, 2017 at 8:20 am


Visibility: N/A

Pressure: 29.65 "Hg

Humidity: 67%

Dew Point: 43 °F

Location of TønsbergLocation

Past Weather in Tønsberg — Graph

°F

Tønsberg Temperature Yesterday

Maximum temperature yesterday: 55 °F (at 12:50 am)
Minimum temperature yesterday: 52 °F (at 7:50 pm)
Average temperature yesterday: 55 °F

High & Low Weather Summary for the Past Weeks

 TemperatureHumidityPressure
High61 °F (Oct 8, 4:20 pm)100% (Oct 10, 12:50 am)30.04 "Hg (Oct 10, 12:50 am)
Low46 °F (Oct 7, 7:20 am)48% (Oct 8, 4:50 pm)29.24 "Hg (Oct 11, 9:20 am)
Average52 °F81%29.70 "Hg
* Reported Oct 7 7:20 am — Oct 22 7:20 am, Tønsberg. Weather by CustomWeather, © 2017

Note: Actual official high and low records may vary slightly from our data, if they occured in-between our weather recording intervals... More about our weather records

Advertising

Tønsberg Weather History for the Previous 24 Hours

Scroll right to see more
 ConditionsComfort  
Time TempWeatherWind HumidityBarometerVisibility
7:20 am
Sun, Oct 22
54 °FPassing clouds.30 mph67%29.65 "HgN/A
6:50 am54 °FPassing clouds.33 mph67%29.65 "HgN/A
5:50 am54 °FPassing clouds.32 mph72%29.62 "HgN/A
4:50 am54 °FOvercast.31 mph72%29.62 "HgN/A
3:50 am54 °FOvercast.31 mph77%29.62 "HgN/A
2:50 am54 °FOvercast.35 mph72%29.62 "HgN/A
1:50 am54 °FOvercast.39 mph72%29.62 "HgN/A
12:50 am54 °FMostly cloudy.41 mph72%29.62 "HgN/A
11:50 pm
Sat, Oct 21
54 °FOvercast.40 mph72%29.62 "HgN/A
10:50 pm54 °FOvercast.46 mph72%29.62 "HgN/A
8:50 pm54 °FLight rain. Overcast.47 mph72%29.62 "HgN/A
7:50 pm52 °FSprinkles. Overcast.48 mph77%29.62 "HgN/A
6:50 pm55 °FPassing clouds.45 mph67%29.62 "HgN/A
5:50 pm55 °FBroken clouds.44 mph67%29.59 "HgN/A
4:50 pm55 °FPartly sunny.43 mph67%29.62 "HgN/A
4:20 pm55 °FPartly sunny.41 mph72%29.62 "HgN/A
3:50 pm55 °FPartly sunny.37 mph72%29.65 "HgN/A
2:50 pm55 °FPartly sunny.39 mph72%29.65 "HgN/A
1:50 pm55 °FPartly sunny.36 mph72%29.68 "HgN/A
1:20 pm55 °FPartly sunny.38 mph72%29.68 "HgN/A
12:50 pm55 °FPartly sunny.36 mph72%29.68 "HgN/A
12:20 pm55 °FPartly sunny.33 mph72%29.68 "HgN/A
11:50 am55 °FPartly sunny.30 mph72%29.68 "HgN/A
11:20 am55 °FPartly sunny.37 mph72%29.68 "HgN/A
10:50 am55 °FPartly sunny.36 mph72%29.68 "HgN/A
10:20 am55 °FPartly sunny.29 mph72%29.71 "HgN/A
9:50 am55 °FPartly sunny.28 mph67%29.68 "HgN/A
9:20 am55 °FPartly sunny.30 mph67%29.68 "HgN/A
Weather by CustomWeather, © 2017

See weather overview